sat.trackr.live / text

‹ back to catalog

YAOGAN-35 04B

NORAD 53524 · 2022-100C

PAYLOAD ACTIVE UNKNOWN

§ Identity

Operator
Country
PRC
Launch date
2022-08-19
Launch site
XICLF
Launch vehicle
Mass (kg)
RCS (m²)

External: N2YO · Heavens-Above · Gunter

§ Orbital elements

Epoch: 2026-05-25T04:21:15.864768Z

Period
93.79 min
Inclination
35.0004°
Eccentricity
0.0003000
Mean motion
15.35275267 rev/d
Perigee alt
458.1 km
Apogee alt
462.2 km
Semi-major
6,838.2 km
B*
2.9662e-4
RAAN
174.5397°
Arg perigee
83.3405°
Mean anomaly
276.7655°
Rev number
10,169

§ Raw data

YAOGAN-35 04B1 53524U 22100C   26145.18143362  .00010408  00000+0  29662-3 0  99902 53524  35.0004 174.5397 0003000  83.3405 276.7655 15.35275267101693

JSON: /api/v1/satellites/53524 · /tle

For live sub-satellite position, see the globe view (requires WebGL).

§ Visibility from observer

Set your observer location to see the next 7 days of passes ≥ 10°. The values pass through the URL so the page stays shareable.

No JS? Fill the form by hand. The geolocation button needs JavaScript.